Time,TemperatureF,DewpointF,PressureIn,WindDirection,WindDirectionDegrees,WindSpeedMPH,WindSpeedGustMPH,Humidity,HourlyPrecipIn,Conditions,Clouds,dailyrainin,SoftwareType,DateUTC
2013-10-06 00:01:00,70.2,68.0,29.78,SSW,205,2.0,8.0,93,0.00,,,1.15,meteohub,2013-10-06 04:01:00,
2013-10-06 00:02:00,70.2,68.0,29.78,SW,232,3.0,8.0,93,0.00,,,1.15,meteohub,2013-10-06 04:02:00,
2013-10-06 00:04:00,70.2,68.0,29.78,SSW,210,3.0,8.0,93,0.00,,,1.15,meteohub,2013-10-06 04:04:00,
2013-10-06 00:07:00,70.2,68.0,29.78,SSW,208,4.0,7.0,93,0.00,,,0.00,meteohub,2013-10-06 04:07:00,
2013-10-06 00:08:00,70.2,68.0,29.78,WSW,245,2.0,7.0,93,0.00,,,0.00,meteohub,2013-10-06 04:08:00,
2013-10-06 00:13:00,70.0,67.8,29.78,SSW,204,3.0,7.0,93,0.00,,,0.00,meteohub,2013-10-06 04:13:00,
2013-10-06 00:18:00,70.0,67.8,29.78,SW,231,6.0,9.0,93,0.00,,,0.00,meteohub,2013-10-06 04:18:00,
2013-10-06 00:23:00,70.0,67.8,29.78,SW,214,3.0,10.0,93,0.00,,,0.00,meteohub,2013-10-06 04:23:00,
2013-10-06 00:28:00,69.8,67.6,29.78,SW,228,6.0,10.0,93,0.00,,,0.00,meteohub,2013-10-06 04:28:00,
2013-10-06 00:34:00,69.8,67.3,29.78,SW,235,8.0,10.0,92,0.00,,,0.00,meteohub,2013-10-06 04:34:00,
2013-10-06 00:39:00,69.6,67.5,29.79,SW,231,4.0,15.0,93,0.00,,,0.00,meteohub,2013-10-06 04:39:00,
2013-10-06 00:44:00,69.6,67.3,29.79,SW,223,10.0,15.0,92,0.00,,,0.00,meteohub,2013-10-06 04:44:00,
2013-10-06 00:49:00,69.4,67.1,29.79,SSW,203,8.0,15.0,92,0.00,,,0.00,meteohub,2013-10-06 04:49:00,
2013-10-06 00:54:00,69.4,66.7,29.78,SW,221,8.0,13.0,91,0.00,,,0.00,meteohub,2013-10-06 04:54:00,
2013-10-06 00:59:00,69.3,66.6,29.79,SW,232,4.0,13.0,91,0.00,,,0.00,meteohub,2013-10-06 04:59:00,
2013-10-06 01:05:00,69.3,66.6,29.79,SSW,211,5.0,13.0,91,0.00,,,0.00,meteohub,2013-10-06 05:05:00,
2013-10-06 01:10:00,69.3,66.9,29.78,SSW,211,12.0,13.0,92,0.00,,,0.00,meteohub,2013-10-06 05:10:00,
2013-10-06 01:15:00,69.1,66.7,29.78,SSW,211,7.0,14.0,92,0.00,,,0.00,meteohub,2013-10-06 05:15:00,
2013-10-06 01:20:00,69.1,66.7,29.78,SW,217,6.0,14.0,92,0.00,,,0.00,meteohub,2013-10-06 05:20:00,
2013-10-06 01:25:00,68.9,66.6,29.78,SSW,195,5.0,14.0,92,0.00,,,0.00,meteohub,2013-10-06 05:25:00,
2013-10-06 01:30:00,68.7,66.4,29.77,SSE,148,3.0,11.0,92,0.00,,,0.00,meteohub,2013-10-06 05:30:00,
2013-10-06 01:36:00,68.5,66.2,29.77,South,169,5.0,8.0,92,0.00,,,0.00,meteohub,2013-10-06 05:36:00,
2013-10-06 01:41:00,68.5,66.2,29.77,SSE,158,5.0,8.0,92,0.00,,,0.00,meteohub,2013-10-06 05:41:00,
2013-10-06 01:46:00,68.4,66.2,29.76,South,180,6.0,7.0,93,0.00,,,0.00,meteohub,2013-10-06 05:46:00,
2013-10-06 01:51:00,68.2,66.0,29.76,SSE,149,6.0,8.0,93,0.00,,,0.00,meteohub,2013-10-06 05:51:00,
2013-10-06 01:56:00,68.2,66.0,29.76,SSE,160,3.0,8.0,93,0.00,,,0.00,meteohub,2013-10-06 05:56:00,
2013-10-06 02:02:00,68.0,65.8,29.76,SSE,163,4.0,8.0,93,0.00,,,0.00,meteohub,2013-10-06 06:02:00,
2013-10-06 02:07:00,67.8,65.7,29.76,SE,136,6.0,7.0,93,0.00,,,0.00,meteohub,2013-10-06 06:07:00,
2013-10-06 02:12:00,67.8,65.7,29.76,SSE,166,5.0,9.0,93,0.00,,,0.00,meteohub,2013-10-06 06:12:00,
2013-10-06 02:17:00,67.6,65.5,29.75,SE,143,6.0,9.0,93,0.00,,,0.00,meteohub,2013-10-06 06:17:00,
2013-10-06 02:22:00,67.6,65.5,29.75,SSW,200,5.0,10.0,93,0.00,,,0.00,meteohub,2013-10-06 06:22:00,
2013-10-06 02:27:00,67.6,65.5,29.75,SE,125,3.0,10.0,93,0.00,,,0.00,meteohub,2013-10-06 06:27:00,
2013-10-06 02:32:00,67.6,65.5,29.75,SSE,167,6.0,10.0,93,0.00,,,0.00,meteohub,2013-10-06 06:32:00,
2013-10-06 02:37:00,67.6,65.5,29.75,SSE,155,4.0,10.0,93,0.00,,,0.00,meteohub,2013-10-06 06:37:00,
2013-10-06 02:42:00,67.5,65.7,29.75,SSE,166,3.0,10.0,94,0.00,,,0.00,meteohub,2013-10-06 06:42:00,
2013-10-06 02:47:00,67.5,65.7,29.75,SE,138,3.0,7.0,94,0.00,,,0.00,meteohub,2013-10-06 06:47:00,
2013-10-06 02:52:00,67.5,65.7,29.75,SSE,155,2.0,7.0,94,0.00,,,0.00,meteohub,2013-10-06 06:52:00,
2013-10-06 02:57:00,67.5,65.7,29.75,SSE,166,4.0,9.0,94,0.00,,,0.00,meteohub,2013-10-06 06:57:00,
2013-10-06 03:02:00,67.3,65.5,29.75,SSE,163,6.0,9.0,94,0.00,,,0.00,meteohub,2013-10-06 07:02:00,
2013-10-06 03:07:00,67.3,65.5,29.75,South,191,4.0,10.0,94,0.00,,,0.00,meteohub,2013-10-06 07:07:00,
2013-10-06 03:12:00,67.1,65.3,29.75,SW,214,3.0,10.0,94,0.00,,,0.00,meteohub,2013-10-06 07:12:00,
2013-10-06 03:17:00,67.1,65.3,29.75,SSW,200,5.0,10.0,94,0.00,,,0.00,meteohub,2013-10-06 07:17:00,
2013-10-06 03:22:00,66.9,65.1,29.75,South,174,3.0,8.0,94,0.00,,,0.00,meteohub,2013-10-06 07:22:00,
2013-10-06 03:27:00,66.9,65.1,29.75,SW,222,6.0,8.0,94,0.00,,,0.00,meteohub,2013-10-06 07:27:00,
2013-10-06 03:32:00,66.9,65.5,29.75,SSW,197,4.0,7.0,95,0.00,,,0.00,meteohub,2013-10-06 07:32:00,
2013-10-06 03:37:00,66.9,65.5,29.75,SW,231,4.0,7.0,95,0.00,,,0.00,meteohub,2013-10-06 07:37:00,
2013-10-06 03:42:00,66.9,65.5,29.75,SSW,195,3.0,8.0,95,0.00,,,0.00,meteohub,2013-10-06 07:42:00,
2013-10-06 03:47:00,66.9,65.5,29.75,SSW,210,4.0,8.0,95,0.00,,,0.00,meteohub,2013-10-06 07:47:00,
2013-10-06 03:52:00,66.9,65.5,29.76,SW,233,6.0,9.0,95,0.00,,,0.00,meteohub,2013-10-06 07:52:00,
2013-10-06 03:57:00,66.9,65.5,29.76,SW,227,7.0,10.0,95,0.00,,,0.00,meteohub,2013-10-06 07:57:00,
2013-10-06 04:02:00,67.1,65.7,29.75,South,179,8.0,10.0,95,0.00,,,0.00,meteohub,2013-10-06 08:02:00,
2013-10-06 04:07:00,67.1,65.7,29.75,SSW,197,8.0,11.0,95,0.00,,,0.00,meteohub,2013-10-06 08:07:00,
2013-10-06 04:12:00,67.1,65.7,29.75,SW,219,4.0,11.0,95,0.00,,,0.00,meteohub,2013-10-06 08:12:00,
2013-10-06 04:17:00,67.1,65.7,29.74,SSW,212,4.0,11.0,95,0.00,,,0.00,meteohub,2013-10-06 08:17:00,
2013-10-06 04:22:00,67.1,65.7,29.73,South,189,4.0,11.0,95,0.00,,,0.00,meteohub,2013-10-06 08:22:00,
2013-10-06 04:27:00,66.9,65.5,29.73,South,188,6.0,11.0,95,0.00,,,0.00,meteohub,2013-10-06 08:27:00,
2013-10-06 04:32:00,66.9,65.5,29.73,South,174,7.0,10.0,95,0.00,,,0.00,meteohub,2013-10-06 08:32:00,
2013-10-06 04:37:00,66.9,65.5,29.73,SSE,155,3.0,7.0,95,0.00,,,0.00,meteohub,2013-10-06 08:37:00,
2013-10-06 04:42:00,66.9,65.5,29.73,SSE,160,5.0,7.0,95,0.00,,,0.00,meteohub,2013-10-06 08:42:00,
2013-10-06 04:47:00,66.9,65.5,29.73,SW,214,3.0,8.0,95,0.00,,,0.00,meteohub,2013-10-06 08:47:00,
2013-10-06 04:52:00,66.7,65.3,29.73,South,181,2.0,8.0,95,0.00,,,0.00,meteohub,2013-10-06 08:52:00,
2013-10-06 04:57:00,66.7,65.3,29.73,South,171,4.0,8.0,95,0.00,,,0.00,meteohub,2013-10-06 08:57:00,
2013-10-06 05:02:00,66.7,65.3,29.73,South,191,3.0,6.0,95,0.00,,,0.00,meteohub,2013-10-06 09:02:00,
2013-10-06 05:07:00,66.7,65.3,29.73,SSE,167,5.0,7.0,95,0.00,,,0.00,meteohub,2013-10-06 09:07:00,
2013-10-06 05:12:00,66.9,65.5,29.73,SE,136,3.0,7.0,95,0.00,,,0.00,meteohub,2013-10-06 09:12:00,
2013-10-06 05:14:00,66.9,65.5,29.73,SSE,163,5.0,7.0,95,0.00,,,0.00,meteohub,2013-10-06 09:14:00,
2013-10-06 05:19:00,66.9,65.5,29.73,SW,219,3.0,9.0,95,0.00,,,0.00,meteohub,2013-10-06 09:19:00,
2013-10-06 05:24:00,66.9,65.5,29.73,SSW,204,3.0,9.0,95,0.00,,,0.00,meteohub,2013-10-06 09:24:00,
2013-10-06 05:29:00,66.9,65.5,29.73,South,179,4.0,8.0,95,0.00,,,0.00,meteohub,2013-10-06 09:29:00,
2013-10-06 05:34:00,67.1,65.7,29.73,South,183,5.0,8.0,95,0.00,,,0.00,meteohub,2013-10-06 09:34:00,
2013-10-06 05:39:00,67.1,65.7,29.72,SSE,152,3.0,9.0,95,0.00,,,0.00,meteohub,2013-10-06 09:39:00,
2013-10-06 05:45:00,67.3,65.8,29.72,SSE,149,4.0,9.0,95,0.00,,,0.00,meteohub,2013-10-06 09:45:00,
2013-10-06 05:50:00,67.3,66.0,29.72,SSE,163,4.0,9.0,96,0.00,,,0.00,meteohub,2013-10-06 09:50:00,
2013-10-06 05:55:00,67.3,66.0,29.73,SSE,155,10.0,10.0,96,0.00,,,0.00,meteohub,2013-10-06 09:55:00,
2013-10-06 06:00:00,67.3,66.0,29.72,SE,142,5.0,12.0,96,0.00,,,0.00,meteohub,2013-10-06 10:00:00,
2013-10-06 06:05:00,67.3,66.0,29.72,SSE,155,4.0,13.0,96,0.00,,,0.00,meteohub,2013-10-06 10:05:00,
2013-10-06 06:10:00,67.5,66.2,29.72,South,169,6.0,13.0,96,0.00,,,0.00,meteohub,2013-10-06 10:10:00,
2013-10-06 06:15:00,67.5,66.2,29.72,SSE,152,8.0,12.0,96,0.00,,,0.00,meteohub,2013-10-06 10:15:00,
2013-10-06 06:21:00,67.5,66.2,29.72,SSE,166,4.0,12.0,96,0.00,,,0.00,meteohub,2013-10-06 10:21:00,
2013-10-06 06:26:00,67.5,66.2,29.72,SSE,160,10.0,12.0,96,0.00,,,0.00,meteohub,2013-10-06 10:26:00,
2013-10-06 06:31:00,67.5,66.0,29.72,SE,143,8.0,12.0,95,0.00,,,0.00,meteohub,2013-10-06 10:31:00,
2013-10-06 06:36:00,67.5,66.0,29.72,South,188,8.0,11.0,95,0.00,,,0.00,meteohub,2013-10-06 10:36:00,
2013-10-06 06:41:00,67.6,66.2,29.73,SSW,197,12.0,12.0,95,0.00,,,0.00,meteohub,2013-10-06 10:41:00,
2013-10-06 06:46:00,67.5,66.0,29.72,SSE,149,13.0,16.0,95,0.00,,,0.00,meteohub,2013-10-06 10:46:00,
2013-10-06 06:51:00,67.3,65.8,29.72,SSE,150,11.0,18.0,95,0.00,,,0.00,meteohub,2013-10-06 10:51:00,
2013-10-06 06:57:00,67.3,65.8,29.72,SSE,166,6.0,18.0,95,0.00,,,0.00,meteohub,2013-10-06 10:57:00,
2013-10-06 07:02:00,67.1,65.7,29.72,South,177,9.0,18.0,95,0.00,,,0.00,meteohub,2013-10-06 11:02:00,
2013-10-06 07:07:00,66.9,65.5,29.72,South,176,10.0,16.0,95,0.00,,,0.00,meteohub,2013-10-06 11:07:00,
2013-10-06 07:12:00,66.9,65.5,29.72,SSE,149,5.0,16.0,95,0.00,,,0.00,meteohub,2013-10-06 11:12:00,
2013-10-06 07:17:00,66.9,65.5,29.72,SE,141,9.0,12.0,95,0.00,,,0.00,meteohub,2013-10-06 11:17:00,
2013-10-06 07:22:00,66.9,65.5,29.72,SE,146,8.0,13.0,95,0.00,,,0.00,meteohub,2013-10-06 11:22:00,
2013-10-06 07:27:00,66.9,65.5,29.71,SSE,150,13.0,13.0,95,0.00,,,0.00,meteohub,2013-10-06 11:27:00,
2013-10-06 07:32:00,66.9,65.5,29.71,South,172,10.0,15.0,95,0.00,,,0.00,meteohub,2013-10-06 11:32:00,
2013-10-06 07:37:00,66.9,65.5,29.70,SSE,158,6.0,15.0,95,0.00,,,0.00,meteohub,2013-10-06 11:37:00,
2013-10-06 07:42:00,66.9,65.5,29.70,South,172,8.0,14.0,95,0.00,,,0.00,meteohub,2013-10-06 11:42:00,
2013-10-06 07:47:00,66.9,65.5,29.70,SE,145,5.0,10.0,95,0.00,,,0.00,meteohub,2013-10-06 11:47:00,
2013-10-06 07:52:00,66.9,65.5,29.70,South,174,10.0,17.0,95,0.00,,,0.00,meteohub,2013-10-06 11:52:00,
2013-10-06 07:57:00,66.9,65.1,29.71,SSW,194,10.0,17.0,94,0.00,,,0.00,meteohub,2013-10-06 11:57:00,
2013-10-06 08:03:00,66.9,65.1,29.70,SSE,166,4.0,17.0,94,0.00,,,0.00,meteohub,2013-10-06 12:03:00,
2013-10-06 08:08:00,66.9,65.1,29.70,South,179,4.0,16.0,94,0.00,,,0.00,meteohub,2013-10-06 12:08:00,
2013-10-06 08:13:00,66.9,65.1,29.70,SE,143,6.0,13.0,94,0.00,,,0.00,meteohub,2013-10-06 12:13:00,
2013-10-06 08:18:00,66.2,63.1,29.70,WSW,255,11.0,13.0,90,0.00,,,0.00,meteohub,2013-10-06 12:18:00,
2013-10-06 08:23:00,64.2,61.2,29.71,WSW,256,10.0,17.0,90,0.00,,,0.00,meteohub,2013-10-06 12:23:00,
2013-10-06 08:28:00,63.1,60.8,29.71,WNW,295,11.0,17.0,92,0.00,,,0.00,meteohub,2013-10-06 12:28:00,
2013-10-06 08:33:00,62.2,60.3,29.71,West,281,8.0,16.0,93,0.00,,,0.00,meteohub,2013-10-06 12:33:00,
2013-10-06 08:39:00,61.9,59.9,29.71,NW,323,8.0,16.0,93,0.00,,,0.00,meteohub,2013-10-06 12:39:00,
2013-10-06 08:44:00,61.3,59.4,29.72,West,260,8.0,13.0,93,0.00,,,0.00,meteohub,2013-10-06 12:44:00,
2013-10-06 08:49:00,61.0,59.0,29.72,West,262,6.0,12.0,93,0.00,,,0.00,meteohub,2013-10-06 12:49:00,
2013-10-06 08:54:00,60.6,58.8,29.72,West,267,5.0,12.0,94,0.00,,,0.00,meteohub,2013-10-06 12:54:00,
2013-10-06 08:59:00,60.4,58.6,29.72,WNW,288,6.0,12.0,94,0.00,,,0.00,meteohub,2013-10-06 12:59:00,
2013-10-06 09:04:00,60.3,58.5,29.72,WNW,283,7.0,11.0,94,0.00,,,0.00,meteohub,2013-10-06 13:04:00,
2013-10-06 09:10:00,60.1,58.1,29.72,WSW,253,9.0,11.0,93,0.00,,,0.00,meteohub,2013-10-06 13:10:00,
2013-10-06 09:15:00,59.9,58.1,29.71,West,274,5.0,12.0,94,0.00,,,0.00,meteohub,2013-10-06 13:15:00,
2013-10-06 09:20:00,59.7,57.9,29.72,West,277,5.0,12.0,94,0.00,,,0.00,meteohub,2013-10-06 13:20:00,
2013-10-06 09:25:00,59.5,57.6,29.71,WNW,298,8.0,12.0,93,0.00,,,0.00,meteohub,2013-10-06 13:25:00,
2013-10-06 09:30:00,59.4,57.0,29.71,WNW,287,10.0,12.0,92,0.00,,,0.00,meteohub,2013-10-06 13:30:00,
2013-10-06 09:35:00,59.2,56.8,29.72,WNW,298,5.0,11.0,92,0.00,,,0.00,meteohub,2013-10-06 13:35:00,
2013-10-06 09:40:00,59.2,56.8,29.72,West,278,7.0,11.0,92,0.00,,,0.00,meteohub,2013-10-06 13:40:00,
2013-10-06 09:46:00,59.2,57.2,29.72,WNW,287,4.0,10.0,93,0.00,,,0.00,meteohub,2013-10-06 13:46:00,
2013-10-06 09:51:00,59.2,57.2,29.71,WNW,290,3.0,10.0,93,0.00,,,0.00,meteohub,2013-10-06 13:51:00,
2013-10-06 09:56:00,58.8,57.0,29.71,WNW,287,7.0,10.0,94,0.00,,,0.01,meteohub,2013-10-06 13:56:00,
2013-10-06 10:01:00,58.6,56.8,29.70,West,269,4.0,8.0,94,0.01,,,0.01,meteohub,2013-10-06 14:01:00,
2013-10-06 10:06:00,58.5,57.0,29.71,West,270,3.0,8.0,95,0.01,,,0.01,meteohub,2013-10-06 14:06:00,
2013-10-06 10:11:00,58.5,57.0,29.71,WNW,295,5.0,7.0,95,0.01,,,0.01,meteohub,2013-10-06 14:11:00,
2013-10-06 10:16:00,58.5,57.0,29.71,West,278,4.0,8.0,95,0.01,,,0.01,meteohub,2013-10-06 14:16:00,
2013-10-06 10:22:00,58.5,57.4,29.71,West,262,4.0,8.0,96,0.01,,,0.01,meteohub,2013-10-06 14:22:00,
2013-10-06 10:27:00,58.3,56.8,29.71,WNW,283,6.0,10.0,95,0.01,,,0.01,meteohub,2013-10-06 14:27:00,
2013-10-06 10:32:00,58.1,57.0,29.71,West,262,9.0,10.0,96,0.01,,,0.01,meteohub,2013-10-06 14:32:00,
2013-10-06 10:37:00,58.1,57.0,29.71,West,275,3.0,10.0,96,0.01,,,0.01,meteohub,2013-10-06 14:37:00,
2013-10-06 10:42:00,57.9,56.8,29.72,West,271,7.0,10.0,96,0.02,,,0.02,meteohub,2013-10-06 14:42:00,
2013-10-06 10:47:00,57.9,57.0,29.73,West,263,7.0,10.0,97,0.02,,,0.02,meteohub,2013-10-06 14:47:00,
2013-10-06 10:52:00,57.9,57.0,29.73,WSW,239,6.0,9.0,97,0.02,,,0.02,meteohub,2013-10-06 14:52:00,
2013-10-06 10:57:00,57.9,57.0,29.73,West,277,7.0,9.0,97,0.01,,,0.02,meteohub,2013-10-06 14:57:00,
2013-10-06 11:02:00,57.6,56.5,29.73,West,269,12.0,14.0,96,0.01,,,0.02,meteohub,2013-10-06 15:02:00,
2013-10-06 11:07:00,57.0,55.9,29.73,West,273,6.0,14.0,96,0.01,,,0.02,meteohub,2013-10-06 15:07:00,
2013-10-06 11:12:00,56.8,55.8,29.73,West,274,2.0,14.0,96,0.02,,,0.03,meteohub,2013-10-06 15:12:00,
2013-10-06 11:17:00,56.8,55.9,29.73,WNW,290,6.0,14.0,97,0.02,,,0.03,meteohub,2013-10-06 15:17:00,
2013-10-06 11:22:00,56.7,55.6,29.73,West,279,8.0,10.0,96,0.02,,,0.03,meteohub,2013-10-06 15:22:00,
2013-10-06 11:27:00,56.3,55.2,29.73,West,260,11.0,15.0,96,0.02,,,0.03,meteohub,2013-10-06 15:27:00,
2013-10-06 11:32:00,55.9,54.9,29.73,WNW,301,4.0,16.0,96,0.02,,,0.03,meteohub,2013-10-06 15:32:00,
2013-10-06 11:37:00,55.9,54.9,29.73,WNW,290,4.0,16.0,96,0.03,,,0.04,meteohub,2013-10-06 15:37:00,
2013-10-06 11:42:00,55.9,55.0,29.73,West,280,4.0,13.0,97,0.02,,,0.04,meteohub,2013-10-06 15:42:00,
2013-10-06 11:47:00,55.9,54.9,29.73,West,266,8.0,11.0,96,0.03,,,0.05,meteohub,2013-10-06 15:47:00,
2013-10-06 11:52:00,55.8,54.7,29.73,West,269,8.0,11.0,96,0.03,,,0.05,meteohub,2013-10-06 15:52:00,
2013-10-06 11:57:00,55.8,54.7,29.73,West,267,4.0,11.0,96,0.03,,,0.05,meteohub,2013-10-06 15:57:00,
2013-10-06 12:02:00,55.8,54.7,29.73,West,266,5.0,11.0,96,0.03,,,0.05,meteohub,2013-10-06 16:02:00,
2013-10-06 12:07:00,55.8,54.7,29.73,WSW,252,6.0,11.0,96,0.02,,,0.05,meteohub,2013-10-06 16:07:00,
2013-10-06 12:12:00,55.8,54.7,29.73,West,271,4.0,9.0,96,0.02,,,0.05,meteohub,2013-10-06 16:12:00,
2013-10-06 12:17:00,55.8,54.7,29.73,West,270,2.0,8.0,96,0.02,,,0.05,meteohub,2013-10-06 16:17:00,
2013-10-06 12:22:00,55.6,54.1,29.73,WNW,293,4.0,8.0,95,0.03,,,0.06,meteohub,2013-10-06 16:22:00,
2013-10-06 12:27:00,55.6,54.1,29.74,West,271,6.0,10.0,95,0.03,,,0.06,meteohub,2013-10-06 16:27:00,
2013-10-06 12:32:00,55.6,54.5,29.73,WNW,284,6.0,11.0,96,0.04,,,0.07,meteohub,2013-10-06 16:32:00,
2013-10-06 12:37:00,55.6,54.5,29.73,West,269,4.0,11.0,96,0.04,,,0.08,meteohub,2013-10-06 16:37:00,
2013-10-06 12:42:00,55.6,54.5,29.74,WNW,283,6.0,9.0,96,0.04,,,0.09,meteohub,2013-10-06 16:42:00,
2013-10-06 12:47:00,55.6,54.5,29.74,WNW,283,4.0,7.0,96,0.05,,,0.09,meteohub,2013-10-06 16:47:00,
2013-10-06 12:52:00,55.4,54.3,29.74,West,259,6.0,7.0,96,0.05,,,0.10,meteohub,2013-10-06 16:52:00,
2013-10-06 12:57:00,55.2,54.1,29.74,WNW,284,6.0,10.0,96,0.07,,,0.12,meteohub,2013-10-06 16:57:00,
2013-10-06 13:02:00,54.9,53.4,29.74,WNW,290,7.0,13.0,95,0.07,,,0.12,meteohub,2013-10-06 17:02:00,
2013-10-06 13:07:00,54.9,53.4,29.73,West,260,5.0,13.0,95,0.08,,,0.13,meteohub,2013-10-06 17:07:00,
2013-10-06 13:12:00,54.9,53.8,29.74,West,274,5.0,13.0,96,0.09,,,0.14,meteohub,2013-10-06 17:12:00,
2013-10-06 13:17:00,54.9,53.8,29.73,West,267,5.0,12.0,96,0.10,,,0.15,meteohub,2013-10-06 17:17:00,
2013-10-06 13:22:00,54.9,53.4,29.73,WSW,253,7.0,11.0,95,0.10,,,0.16,meteohub,2013-10-06 17:22:00,
2013-10-06 13:27:00,54.7,53.2,29.73,West,266,6.0,13.0,95,0.10,,,0.16,meteohub,2013-10-06 17:27:00,
2013-10-06 13:32:00,54.5,53.1,29.73,WSW,242,5.0,13.0,95,0.09,,,0.16,meteohub,2013-10-06 17:32:00,
2013-10-06 13:37:00,54.3,52.7,29.73,West,263,8.0,13.0,94,0.09,,,0.17,meteohub,2013-10-06 17:37:00,
2013-10-06 13:42:00,54.0,52.3,29.72,WSW,253,8.0,10.0,94,0.10,,,0.19,meteohub,2013-10-06 17:42:00,
2013-10-06 13:47:00,53.8,52.3,29.72,WSW,256,4.0,10.0,95,0.10,,,0.20,meteohub,2013-10-06 17:47:00,
2013-10-06 13:52:00,54.0,52.9,29.73,WSW,240,5.0,10.0,96,0.10,,,0.21,meteohub,2013-10-06 17:52:00,
2013-10-06 13:57:00,54.0,52.9,29.71,West,264,3.0,9.0,96,0.10,,,0.22,meteohub,2013-10-06 17:57:00,
2013-10-06 14:02:00,54.0,52.5,29.72,WSW,245,8.0,8.0,95,0.09,,,0.22,meteohub,2013-10-06 18:02:00,
2013-10-06 14:07:00,54.0,52.9,29.72,WSW,248,4.0,9.0,96,0.08,,,0.22,meteohub,2013-10-06 18:07:00,
2013-10-06 14:12:00,54.1,53.1,29.72,SW,218,3.0,9.0,96,0.07,,,0.22,meteohub,2013-10-06 18:12:00,
2013-10-06 14:17:00,54.1,52.7,29.71,WSW,248,4.0,9.0,95,0.07,,,0.22,meteohub,2013-10-06 18:17:00,
2013-10-06 14:22:00,54.1,52.7,29.71,West,272,2.0,8.0,95,0.07,,,0.23,meteohub,2013-10-06 18:22:00,
2013-10-06 14:27:00,54.3,52.7,29.70,WSW,242,5.0,8.0,94,0.07,,,0.23,meteohub,2013-10-06 18:27:00,
2013-10-06 14:32:00,54.1,52.5,29.70,WSW,250,3.0,7.0,94,0.06,,,0.23,meteohub,2013-10-06 18:32:00,
2013-10-06 14:37:00,54.1,52.5,29.70,SW,225,2.0,6.0,94,0.05,,,0.23,meteohub,2013-10-06 18:37:00,
2013-10-06 14:42:00,54.1,52.5,29.70,WSW,242,3.0,6.0,94,0.04,,,0.23,meteohub,2013-10-06 18:42:00,
2013-10-06 14:47:00,54.0,52.3,29.70,SSW,211,2.0,6.0,94,0.02,,,0.23,meteohub,2013-10-06 18:47:00,
2013-10-06 14:52:00,54.1,52.5,29.70,WSW,242,3.0,6.0,94,0.02,,,0.23,meteohub,2013-10-06 18:52:00,
2013-10-06 14:57:00,54.3,52.7,29.70,West,260,3.0,5.0,94,0.01,,,0.23,meteohub,2013-10-06 18:57:00,
2013-10-06 15:02:00,54.5,52.9,29.70,SSW,201,4.0,4.0,94,0.01,,,0.23,meteohub,2013-10-06 19:02:00,
2013-10-06 15:07:00,54.7,53.1,29.69,SSW,204,2.0,5.0,94,0.01,,,0.23,meteohub,2013-10-06 19:07:00,
2013-10-06 15:12:00,54.9,53.2,29.69,SSE,148,1.0,5.0,94,0.01,,,0.23,meteohub,2013-10-06 19:12:00,
2013-10-06 15:17:00,55.0,53.1,29.69,SW,231,3.0,7.0,93,0.01,,,0.23,meteohub,2013-10-06 19:17:00,
2013-10-06 15:22:00,55.2,53.2,29.68,WSW,250,3.0,7.0,93,0.00,,,0.23,meteohub,2013-10-06 19:22:00,
2013-10-06 15:28:00,55.9,53.6,29.68,WSW,253,1.0,7.0,92,0.00,,,0.23,meteohub,2013-10-06 19:28:00,
2013-10-06 15:33:00,55.8,52.9,29.68,WSW,245,2.0,5.0,90,0.00,,,0.23,meteohub,2013-10-06 19:33:00,
2013-10-06 15:38:00,56.1,53.8,29.68,West,259,4.0,5.0,92,0.00,,,0.23,meteohub,2013-10-06 19:38:00,
2013-10-06 15:43:00,56.5,53.6,29.68,SW,233,3.0,5.0,90,0.00,,,0.23,meteohub,2013-10-06 19:43:00,
2013-10-06 15:48:00,56.5,53.2,29.68,West,264,4.0,5.0,89,0.00,,,0.23,meteohub,2013-10-06 19:48:00,
2013-10-06 15:54:00,56.3,53.1,29.68,WSW,242,5.0,6.0,89,0.00,,,0.23,meteohub,2013-10-06 19:54:00,
2013-10-06 16:00:00,56.1,52.9,29.69,WSW,248,3.0,7.0,89,0.00,,,0.23,meteohub,2013-10-06 20:00:00,
2013-10-06 16:05:00,56.1,52.9,29.68,WSW,248,4.0,7.0,89,0.00,,,0.23,meteohub,2013-10-06 20:05:00,
2013-10-06 16:10:00,56.1,52.9,29.69,WSW,250,3.0,7.0,89,0.00,,,0.23,meteohub,2013-10-06 20:10:00,
2013-10-06 16:15:00,56.3,53.4,29.69,SW,221,1.0,7.0,90,0.00,,,0.23,meteohub,2013-10-06 20:15:00,
2013-10-06 16:21:00,56.7,54.1,29.68,WSW,245,4.0,6.0,91,0.00,,,0.23,meteohub,2013-10-06 20:21:00,
2013-10-06 16:26:00,56.8,53.6,29.68,WSW,239,2.0,6.0,89,0.00,,,0.23,meteohub,2013-10-06 20:26:00,
2013-10-06 16:31:00,57.2,53.6,29.68,WNW,288,0.0,6.0,88,0.00,,,0.23,meteohub,2013-10-06 20:31:00,
2013-10-06 16:36:00,57.6,53.8,29.68,SW,234,7.0,7.0,87,0.00,,,0.23,meteohub,2013-10-06 20:36:00,
2013-10-06 16:41:00,57.7,54.1,29.68,South,190,2.0,7.0,88,0.00,,,0.23,meteohub,2013-10-06 20:41:00,
2013-10-06 16:46:00,57.9,53.8,29.68,WSW,240,2.0,7.0,86,0.00,,,0.23,meteohub,2013-10-06 20:46:00,
2013-10-06 16:52:00,58.3,53.8,29.68,WNW,294,3.0,7.0,85,0.00,,,0.23,meteohub,2013-10-06 20:52:00,
2013-10-06 16:57:00,58.3,54.1,29.68,WSW,252,5.0,7.0,86,0.00,,,0.23,meteohub,2013-10-06 20:57:00,
2013-10-06 17:02:00,58.5,53.6,29.68,West,269,5.0,6.0,84,0.00,,,0.23,meteohub,2013-10-06 21:02:00,
2013-10-06 17:07:00,58.5,53.2,29.68,WSW,245,3.0,6.0,83,0.00,,,0.23,meteohub,2013-10-06 21:07:00,
2013-10-06 17:12:00,58.5,53.6,29.68,SW,229,4.0,6.0,84,0.00,,,0.23,meteohub,2013-10-06 21:12:00,
2013-10-06 17:17:00,58.5,53.6,29.68,SW,229,5.0,5.0,84,0.00,,,0.23,meteohub,2013-10-06 21:17:00,
2013-10-06 17:22:00,58.3,53.4,29.68,West,266,5.0,7.0,84,0.00,,,0.23,meteohub,2013-10-06 21:22:00,
2013-10-06 17:27:00,58.3,53.8,29.68,SW,222,4.0,7.0,85,0.00,,,0.23,meteohub,2013-10-06 21:27:00,
2013-10-06 17:32:00,58.3,53.8,29.68,SW,231,5.0,8.0,85,0.00,,,0.23,meteohub,2013-10-06 21:32:00,
2013-10-06 17:37:00,58.3,54.5,29.68,SSW,200,2.0,8.0,87,0.00,,,0.23,meteohub,2013-10-06 21:37:00,
2013-10-06 17:42:00,58.6,54.5,29.69,SW,220,5.0,8.0,86,0.00,,,0.23,meteohub,2013-10-06 21:42:00,
2013-10-06 17:47:00,58.8,54.3,29.69,SW,233,7.0,10.0,85,0.00,,,0.23,meteohub,2013-10-06 21:47:00,
2013-10-06 17:52:00,59.2,54.0,29.69,West,263,4.0,10.0,83,0.00,,,0.23,meteohub,2013-10-06 21:52:00,
2013-10-06 17:57:00,59.5,54.7,29.69,WSW,245,4.0,10.0,84,0.00,,,0.23,meteohub,2013-10-06 21:57:00,
2013-10-06 18:02:00,59.7,54.5,29.69,SW,231,9.0,12.0,83,0.00,,,0.23,meteohub,2013-10-06 22:02:00,
2013-10-06 18:07:00,59.4,53.8,29.69,West,262,5.0,12.0,82,0.00,,,0.23,meteohub,2013-10-06 22:07:00,
2013-10-06 18:12:00,59.2,54.3,29.69,WSW,246,6.0,12.0,84,0.00,,,0.23,meteohub,2013-10-06 22:12:00,
2013-10-06 18:17:00,59.0,53.8,29.69,WSW,253,6.0,12.0,83,0.00,,,0.23,meteohub,2013-10-06 22:17:00,
2013-10-06 18:23:00,59.0,53.8,29.69,West,277,2.0,11.0,83,0.00,,,0.23,meteohub,2013-10-06 22:23:00,
2013-10-06 18:28:00,59.4,54.1,29.69,WNW,283,5.0,11.0,83,0.00,,,0.23,meteohub,2013-10-06 22:28:00,
2013-10-06 18:33:00,59.4,53.2,29.69,West,280,4.0,11.0,80,0.00,,,0.23,meteohub,2013-10-06 22:33:00,
2013-10-06 18:38:00,59.4,50.4,29.70,West,270,5.0,8.0,72,0.00,,,0.23,meteohub,2013-10-06 22:38:00,
2013-10-06 18:43:00,59.4,50.4,29.70,West,278,4.0,11.0,72,0.00,,,0.23,meteohub,2013-10-06 22:43:00,
2013-10-06 18:49:00,59.2,49.8,29.70,West,280,3.0,11.0,71,0.00,,,0.23,meteohub,2013-10-06 22:49:00,
2013-10-06 18:54:00,58.6,49.6,29.70,West,269,2.0,11.0,72,0.00,,,0.23,meteohub,2013-10-06 22:54:00,
2013-10-06 18:59:00,58.1,48.7,29.70,West,276,4.0,9.0,71,0.00,,,0.23,meteohub,2013-10-06 22:59:00,
2013-10-06 19:04:00,57.6,48.6,29.70,West,269,3.0,8.0,72,0.00,,,0.23,meteohub,2013-10-06 23:04:00,
2013-10-06 19:09:00,57.4,48.7,29.70,West,273,2.0,8.0,73,0.00,,,0.23,meteohub,2013-10-06 23:09:00,
2013-10-06 19:14:00,56.8,48.9,29.70,WNW,283,1.0,6.0,75,0.00,,,0.23,meteohub,2013-10-06 23:14:00,
2013-10-06 19:20:00,56.7,49.1,29.70,WNW,283,1.0,6.0,76,0.00,,,0.23,meteohub,2013-10-06 23:20:00,
2013-10-06 19:25:00,56.1,48.9,29.71,WNW,283,0.0,3.0,77,0.00,,,0.23,meteohub,2013-10-06 23:25:00,
2013-10-06 19:30:00,55.8,49.3,29.71,West,269,0.0,3.0,79,0.00,,,0.23,meteohub,2013-10-06 23:30:00,
2013-10-06 19:35:00,55.4,48.9,29.70,West,268,0.0,2.0,79,0.00,,,0.23,meteohub,2013-10-06 23:35:00,
2013-10-06 19:40:00,55.0,49.3,29.71,West,269,0.0,1.0,81,0.00,,,0.23,meteohub,2013-10-06 23:40:00,
2013-10-06 19:45:00,54.9,48.7,29.70,West,269,0.0,1.0,80,0.00,,,0.23,meteohub,2013-10-06 23:45:00,
2013-10-06 19:51:00,54.7,49.6,29.70,West,268,0.0,1.0,83,0.00,,,0.23,meteohub,2013-10-06 23:51:00,
2013-10-06 19:56:00,54.1,49.5,29.70,West,268,0.0,1.0,84,0.00,,,0.23,meteohub,2013-10-06 23:56:00,
2013-10-06 20:01:00,53.4,49.3,29.70,West,268,0.0,1.0,86,0.00,,,0.23,meteohub,2013-10-07 00:01:00,
2013-10-06 20:06:00,52.9,49.1,29.70,West,268,0.0,0.0,87,0.00,,,0.23,meteohub,2013-10-07 00:06:00,
2013-10-06 20:11:00,52.5,49.1,29.70,West,269,0.0,1.0,88,0.00,,,0.23,meteohub,2013-10-07 00:11:00,
2013-10-06 20:16:00,52.2,49.1,29.70,West,268,0.0,1.0,89,0.00,,,0.23,meteohub,2013-10-07 00:16:00,
2013-10-06 20:22:00,52.0,49.1,29.70,West,268,0.0,1.0,90,0.00,,,0.23,meteohub,2013-10-07 00:22:00,
2013-10-06 20:27:00,52.0,49.5,29.70,West,268,0.0,1.0,91,0.00,,,0.23,meteohub,2013-10-07 00:27:00,
2013-10-06 20:32:00,52.0,49.6,29.70,East,94,1.0,1.0,92,0.00,,,0.23,meteohub,2013-10-07 00:32:00,
2013-10-06 20:37:00,52.0,49.6,29.70,East,91,0.0,1.0,92,0.00,,,0.23,meteohub,2013-10-07 00:37:00,
2013-10-06 20:42:00,52.0,49.6,29.70,East,91,0.0,1.0,92,0.00,,,0.23,meteohub,2013-10-07 00:42:00,
2013-10-06 20:47:00,52.0,50.0,29.70,East,91,1.0,1.0,93,0.00,,,0.23,meteohub,2013-10-07 00:47:00,
2013-10-06 20:52:00,52.0,50.0,29.70,East,91,0.0,1.0,93,0.00,,,0.23,meteohub,2013-10-07 00:52:00,
2013-10-06 20:57:00,51.8,49.8,29.70,East,91,0.0,1.0,93,0.00,,,0.23,meteohub,2013-10-07 00:57:00,
2013-10-06 21:02:00,51.6,49.6,29.70,East,91,0.0,1.0,93,0.00,,,0.23,meteohub,2013-10-07 01:02:00,
2013-10-06 21:07:00,51.4,49.5,29.70,East,91,0.0,1.0,93,0.00,,,0.23,meteohub,2013-10-07 01:07:00,
2013-10-06 21:12:00,51.4,49.8,29.70,ESE,107,2.0,2.0,94,0.00,,,0.23,meteohub,2013-10-07 01:12:00,
2013-10-06 21:17:00,51.4,49.8,29.70,SE,127,2.0,3.0,94,0.00,,,0.23,meteohub,2013-10-07 01:17:00,
2013-10-06 21:22:00,51.6,50.0,29.70,SE,134,3.0,3.0,94,0.00,,,0.23,meteohub,2013-10-07 01:22:00,
2013-10-06 21:27:00,52.2,50.5,29.70,ESE,118,4.0,4.0,94,0.00,,,0.23,meteohub,2013-10-07 01:27:00,
2013-10-06 21:32:00,52.3,50.4,29.70,SE,131,3.0,5.0,93,0.00,,,0.23,meteohub,2013-10-07 01:32:00,
2013-10-06 21:37:00,52.5,50.2,29.70,SSE,158,4.0,5.0,92,0.00,,,0.23,meteohub,2013-10-07 01:37:00,
2013-10-06 21:42:00,52.7,49.8,29.70,SE,146,5.0,6.0,90,0.00,,,0.23,meteohub,2013-10-07 01:42:00,
2013-10-06 21:47:00,52.9,49.6,29.70,SE,132,2.0,6.0,89,0.00,,,0.23,meteohub,2013-10-07 01:47:00,
2013-10-06 21:52:00,52.9,49.5,29.70,SSE,163,4.0,6.0,88,0.00,,,0.23,meteohub,2013-10-07 01:52:00,
2013-10-06 21:57:00,53.1,49.6,29.70,South,174,2.0,5.0,88,0.00,,,0.23,meteohub,2013-10-07 01:57:00,
2013-10-06 22:02:00,53.1,49.6,29.70,South,169,3.0,6.0,88,0.00,,,0.23,meteohub,2013-10-07 02:02:00,
2013-10-06 22:07:00,53.2,49.8,29.70,SSE,160,4.0,6.0,88,0.00,,,0.23,meteohub,2013-10-07 02:07:00,
2013-10-06 22:12:00,53.4,50.0,29.71,SSE,155,3.0,6.0,88,0.00,,,0.23,meteohub,2013-10-07 02:12:00,
2013-10-06 22:17:00,53.4,50.0,29.71,WSW,239,2.0,6.0,88,0.00,,,0.23,meteohub,2013-10-07 02:17:00,
2013-10-06 22:22:00,53.4,50.2,29.71,South,191,1.0,5.0,89,0.00,,,0.23,meteohub,2013-10-07 02:22:00,
2013-10-06 22:27:00,53.2,50.4,29.71,SW,224,0.0,5.0,90,0.01,,,0.24,meteohub,2013-10-07 02:27:00,
2013-10-06 22:32:00,53.1,49.8,29.71,SE,143,1.0,4.0,89,0.03,,,0.25,meteohub,2013-10-07 02:32:00,
2013-10-06 22:37:00,53.1,50.2,29.70,ESE,105,1.0,3.0,90,0.03,,,0.26,meteohub,2013-10-07 02:37:00,
2013-10-06 22:42:00,53.1,50.5,29.70,ESE,121,0.0,3.0,91,0.03,,,0.26,meteohub,2013-10-07 02:42:00,
2013-10-06 22:47:00,52.9,50.5,29.70,ESE,115,0.0,2.0,92,0.03,,,0.26,meteohub,2013-10-07 02:47:00,
2013-10-06 22:52:00,52.9,50.5,29.71,SSW,205,2.0,3.0,92,0.03,,,0.26,meteohub,2013-10-07 02:52:00,
2013-10-06 22:57:00,52.9,50.4,29.71,SW,233,6.0,8.0,91,0.03,,,0.26,meteohub,2013-10-07 02:57:00,
2013-10-06 23:02:00,52.9,50.0,29.71,SW,214,6.0,10.0,90,0.03,,,0.26,meteohub,2013-10-07 03:02:00,
2013-10-06 23:07:00,52.9,50.4,29.71,WSW,243,5.0,11.0,91,0.03,,,0.26,meteohub,2013-10-07 03:07:00,
2013-10-06 23:12:00,52.9,50.4,29.71,WSW,248,4.0,11.0,91,0.03,,,0.26,meteohub,2013-10-07 03:12:00,
2013-10-06 23:17:00,52.9,50.5,29.72,SW,228,3.0,11.0,92,0.03,,,0.26,meteohub,2013-10-07 03:17:00,
2013-10-06 23:22:00,52.9,50.5,29.72,WSW,239,6.0,10.0,92,0.02,,,0.26,meteohub,2013-10-07 03:22:00,
2013-10-06 23:27:00,52.9,50.5,29.72,West,263,5.0,10.0,92,0.01,,,0.26,meteohub,2013-10-07 03:27:00,
2013-10-06 23:32:00,52.9,50.5,29.72,West,259,11.0,11.0,92,0.00,,,0.26,meteohub,2013-10-07 03:32:00,
2013-10-06 23:37:00,53.1,50.5,29.72,West,276,7.0,13.0,91,0.00,,,0.26,meteohub,2013-10-07 03:37:00,
2013-10-06 23:42:00,53.1,50.7,29.72,WSW,248,5.0,13.0,92,0.00,,,0.26,meteohub,2013-10-07 03:42:00,
2013-10-06 23:47:00,52.9,50.5,29.72,West,274,5.0,13.0,92,0.00,,,0.26,meteohub,2013-10-07 03:47:00,
2013-10-06 23:52:00,52.9,50.5,29.71,SW,232,4.0,10.0,92,0.00,,,0.26,meteohub,2013-10-07 03:52:00,
2013-10-06 23:57:00,52.7,50.4,29.72,SW,233,4.0,7.0,92,0.00,,,0.26,meteohub,2013-10-07 03:57:00,